Regional Weather Roundup
Issued by NWS

Home | Current Version | Previous Version | Graphics & Text | Print | Product List | Glossary On
Versions: 1 2 3 4 5 6 7 8 9 10 11 12 13 14 15 16 17 18 19 20 21 22 23 24 25 26 27 28 29 30 31 32 33 34 35 36 37 38 39 40 41 42 43 44 45 46 47 48 49 50
000
ASUS43 KDTX 051110
RWRMI
MICHIGAN HOURLY REGIONAL WEATHER ROUNDUP
NATIONAL WEATHER SERVICE DETROIT/PONTIAC MI
700 AM EDT WED AUG 05 2015

NOTE: "FAIR" INDICATES FEW OR NO CLOUDS BELOW 12,000 FEET WITH NO
SIGNIFICANT WEATHER AND/OR OBSTRUCTION TO VISIBILITY.

MIZ047>049-052>055-059>063-066>070-074>076-081>083-051200-
SOUTHEAST LOWER MICHIGAN

CITY           SKY/WX    TMP DP  RH WIND       PRES   REMARKS
ADRIAN         CLEAR     55  53  93 CALM      30.06R
ALMA           CLEAR     51  51  99 CALM      30.06R FOG
ANN ARBOR      CLEAR     59  54  83 N3        30.03S
BAD AXE        CLEAR     55  52  92 N3        30.04R
DETROIT CITY   CLEAR     61  54  77 CALM      30.03R
DETROIT        PTCLDY    59  54  83 W5        30.04R
FLINT          CLEAR     57  53  86 W3        30.04S
GROSSE ILE     CLEAR     61  55  82 NW3       30.02S
HILLSDALE      CLEAR     56  56 100 CALM      30.06R
HOWELL         MOCLDY    56  55  95 NW3       30.05R

CITY           SKY/WX    TMP DP  RH WIND       PRES   REMARKS
JACKSON        CLEAR     55  53  93 SW3       30.05R
LAMBERTVILLE   CLEAR     56  53  90 CALM      30.04S
LANSING        MOCLDY    58  54  86 CALM      30.06R
LAPEER         NOT AVBL
MASON          PTCLDY    51  50  97 CALM      30.06R
MONROE         CLEAR     56  55  93 CALM      30.03R
MT. CLEMENS    CLEAR     60  55  85 W3        30.01R
PONTIAC        PTCLDY    59  55  87 NW6       30.03R
PORT HOPE        N/A     62  53  72 NW12G21   30.01S
PORT HURON     FOG       57  57 100 NW5       30.02R VSB 3/4
TRI CITIES     CLEAR     57  53  86 N6        30.07R
YPSILANTI      CLEAR     57  52  83 CALM      30.04S
$$
MIZ043>046-050>051-056>058-064>065-071>073-077>080-051200-
SOUTHWEST LOWER MICHIGAN

CITY           SKY/WX    TMP DP  RH WIND       PRES   REMARKS
BATTLE CREEK   CLEAR     57  55  93 S3        30.06R
BENTON HARBOR  CLEAR     55  54  96 CALM      30.05R
BIG RAPIDS     CLEAR     51  50  95 CALM      30.06R
COLDWATER      CLEAR     54  53  97 CALM      30.06R
HOLLAND        CLEAR     58  55  90 CALM      30.05R
GRAND RAPIDS   PTCLDY    59  56  89 CALM      30.05R
KALAMAZOO      CLEAR     55  53  93 CALM      30.07R
MARSHALL       CLEAR     54  52  95 CALM      30.05R
MUSKEGON       PTCLDY    59  54  83 CALM      30.05R
$$
MIZ016>042-051200-
NORTHERN LOWER MICHIGAN

CITY           SKY/WX    TMP DP  RH WIND       PRES   REMARKS
ALPENA         CLEAR     51  49  92 W3        30.04R
BEAVER ISLAND  PTCLDY    57  53  86 N8        30.06S
BELLAIRE       MOCLDY    49  47  95 CALM      30.07R
CADILLAC       CLEAR     48  48  97 CALM      30.07R
CHARLEVOIX     PTCLDY    60  53  78 NW8       30.08S
FRANKFORT      SUNNY     50  49  96 CALM      30.07R
GAYLORD        CLEAR     52  51  97 W3        30.06R
GRAYLING       CLEAR     46  45  99 CALM      30.07R
HARBOR SPRINGS PTCLDY    55  52  90 NW3       30.05R
HOUGHTON LAKE  CLEAR     53  51  93 W5        30.07R
MANISTEE       CLEAR     52  46  82 E3        30.07R
OSCODA         CLEAR     49  48  97 W5        30.03R
PELLSTON       PTCLDY    45  43  93 CALM      30.05R
TRAVERSE CITY  PTCLDY    54  52  93 CALM      30.06R
$$
MIZ007>008-015-051200-
EASTERN UPPER MICHIGAN

CITY           SKY/WX    TMP DP  RH WIND       PRES   REMARKS
KINROSS        CLEAR     52  52 100 W6        30.04R
MACKINAC ISLAN CLEAR     51  50  93 NW7       30.04R
NEWBERRY       PTCLDY    51  50  99 W6        30.06R
S. S. MARIE    CLEAR     53  51  93 W3        30.02R
$$
MIZ004>006-011>014-085-051200-
CENTRAL UPPER MICHIGAN

CITY           SKY/WX    TMP DP  RH WIND       PRES   REMARKS
MANISTIQUE     CLEAR     49  47  94 NW6       30.06S
ESCANABA       CLEAR     48  45  87 NW3       30.08R
MENOMINEE      CLOUDY    54  48  82 N6        30.08R
$$
MIZ001>003-009>011-084-051200-
WESTERN UPPER MICHIGAN

CITY           SKY/WX    TMP DP  RH WIND       PRES   REMARKS
IRON MOUNTAIN  CLEAR     45  42  89 CALM      30.09S
HOUGHTON       CLEAR     51  49  92 NW9       30.07R
COPPER HARBOR    N/A     57  52  83 W3        30.06R
IRONWOOD       CLEAR     43  43 100 CALM      30.09R
$$

ABBREVIATIONS USED IN REMARKS
   TC - TEMPERATURE IN CELSIUS
  WCI - WIND CHILL INDEX
   HX - HEAT INDEX
  VSB - VISIBILITY



USA.gov is the U.S. government's official web portal to all federal, state and local government web resources and services.